Weather History for KF05 - January, 2014

Change the Weather History Date:

Friday, January 3, 2014

  Actual Average (KLTS) Record (KLTS)
Temperature  
Mean Temperature 44 °F -  
Max Temperature 62 °F 49 °F 84 °F (1997)
Min Temperature 25 °F 26 °F 10 °F (1999)
Degree Days  
Heating Degree Days 22    
Moisture  
Dew Point 21 °F    
Average Humidity 48    
Maximum Humidity 75    
Minimum Humidity 20    
Precipitation  
Precipitation 0.00 in - - ()
Sea Level Pressure  
Sea Level Pressure 30.12 in    
Wind  
Wind Speed 11 mph (South)    
Max Wind Speed 28 mph    
Max Gust Speed 34 mph    
Visibility 10 miles    
Events      
Averages and records for this station are not official NWS values.
T = Trace of Precipitation, MM = Missing Value Source: NWS Daily Summary

Daily Weather History Graph

Daily Weather History Graph

Search for Another Location

Airport or City:

Trip Planner

Search our weather history database for the weather conditions in past years. The results will help you decide how hot, cold, wet, or windy it might be!

Date:

Astronomy

Jan. 03, 2014 Rise Set
Actual Time 7:43 AM CST 5:40 PM CST
Civil Twilight 7:15 AM CST 6:07 PM CST
Nautical Twilight 6:44 AM CST 6:38 PM CST
Astronomical Twilight 6:14 AM CST 7:09 PM CST
Moon 9:18 AM CST (1/3) 8:42 PM CST (1/3)
Length of Visible Light 10h 51m
Length of Day
9h 56m
Waxing Crescent, 8% of the Moon is Illuminated
Jan 3
Waxing Crescent
Jan 7
First Quarter
Jan 15
Full
Jan 23
Last Quarter
Jan 30
New

Hourly Weather History & Observations

Time (CST) Temp. Windchill Dew Point Humidity Pressure Visibility Wind Dir Wind Speed Gust Speed Precip Events Conditions
12:15 AM 28.6 °F 21.5 °F 18.3 °F 65% 30.38 in 10.0 mi South 6.9 mph - N/A   Clear
12:35 AM 28.4 °F 20.4 °F 18.3 °F 66% 30.37 in 10.0 mi South 8.1 mph - N/A   Clear
12:55 AM 28.2 °F 21.0 °F 18.3 °F 66% 30.37 in 10.0 mi South 6.9 mph - N/A   Clear
1:15 AM 27.3 °F 20.9 °F 18.1 °F 68% 30.36 in 10.0 mi South 5.8 mph - N/A   Clear
1:35 AM 27.1 °F 20.7 °F 18.0 °F 68% 30.36 in 10.0 mi South 5.8 mph - N/A   Clear
1:55 AM 27.0 °F 19.5 °F 18.0 °F 69% 30.35 in 10.0 mi South 6.9 mph - N/A   Clear
2:15 AM 27.0 °F 20.5 °F 18.0 °F 69% 30.35 in 10.0 mi South 5.8 mph - N/A   Clear
2:35 AM 26.6 °F 20.0 °F 18.1 °F 70% 30.35 in 10.0 mi South 5.8 mph - N/A   Clear
2:55 AM 26.2 °F 20.7 °F 17.8 °F 70% 30.35 in 10.0 mi SSW 4.6 mph - N/A   Clear
3:15 AM 25.9 °F 21.7 °F 17.6 °F 71% 30.35 in 10.0 mi South 3.5 mph - N/A   Clear
3:35 AM 26.4 °F 18.9 °F 17.6 °F 69% 30.34 in 10.0 mi SSE 6.9 mph - N/A   Clear
3:55 AM 25.5 °F 18.7 °F 17.4 °F 71% 30.33 in 10.0 mi South 5.8 mph - N/A   Clear
4:15 AM 25.5 °F 17.8 °F 17.6 °F 72% 30.33 in 10.0 mi South 6.9 mph - N/A   Clear
4:35 AM 25.5 °F 18.7 °F 17.6 °F 72% 30.32 in 10.0 mi South 5.8 mph - N/A   Clear
4:55 AM 25.5 °F 18.7 °F 17.6 °F 72% 30.31 in 10.0 mi SSE 5.8 mph - N/A   Clear
5:15 AM 25.2 °F 17.3 °F 17.8 °F 74% 30.30 in 10.0 mi South 6.9 mph - N/A   Clear
5:35 AM 25.3 °F 18.5 °F 18.1 °F 74% 30.31 in 10.0 mi South 5.8 mph - N/A   Clear
5:55 AM 25.3 °F 18.5 °F 18.1 °F 74% 30.30 in 10.0 mi South 5.8 mph - N/A   Clear
6:15 AM 25.3 °F 17.6 °F 18.0 °F 74% 30.29 in 10.0 mi South 6.9 mph - N/A   Clear
6:35 AM 25.5 °F 18.7 °F 18.1 °F 74% 30.29 in 10.0 mi SSE 5.8 mph - N/A   Clear
6:55 AM 25.2 °F 18.3 °F 18.1 °F 75% 30.28 in 10.0 mi SSE 5.8 mph - N/A   Clear
7:15 AM 25.7 °F 18.0 °F 18.3 °F 74% 30.27 in 10.0 mi SSE 6.9 mph - N/A   Clear
7:35 AM 26.8 °F 18.5 °F 19.0 °F 73% 30.27 in 10.0 mi SSE 8.1 mph - N/A   Clear
7:55 AM 27.7 °F 18.8 °F 19.4 °F 71% 30.26 in 10.0 mi SSE 9.2 mph - N/A   Clear
8:15 AM 28.4 °F 19.1 °F 19.6 °F 70% 30.26 in 10.0 mi SSE 10.4 mph - N/A   Clear
8:35 AM 30.0 °F 20.0 °F 20.3 °F 67% 30.26 in 10.0 mi SSE 12.7 mph - N/A   Clear
8:55 AM 31.3 °F 21.1 °F 20.7 °F 65% 30.26 in 10.0 mi SSE 13.8 mph - N/A   Clear
9:15 AM 32.0 °F 21.2 °F 20.7 °F 63% 30.25 in 10.0 mi SSE 16.1 mph - N/A   Clear
9:35 AM 32.9 °F 22.4 °F 21.0 °F 62% 30.25 in 10.0 mi SSE 16.1 mph - N/A   Clear
9:55 AM 35.4 °F 26.0 °F 21.4 °F 57% 30.25 in 10.0 mi South 15.0 mph - N/A   Clear
10:15 AM 37.9 °F 28.9 °F 22.1 °F 53% 30.24 in 10.0 mi South 16.1 mph - N/A   Clear
10:35 AM 40.3 °F 31.3 °F 21.9 °F 48% 30.24 in 10.0 mi South 18.4 mph 24.2 mph N/A   Clear
10:55 AM 41.4 °F 32.7 °F 21.7 °F 46% 30.22 in 10.0 mi South 18.4 mph 24.2 mph N/A   Clear
11:15 AM 43.2 °F 35.0 °F 22.1 °F 43% 30.20 in 10.0 mi South 18.4 mph - N/A   Clear
11:35 AM 44.6 °F 37.4 °F 22.3 °F 41% 30.18 in 10.0 mi South 16.1 mph 20.7 mph N/A   Clear
11:55 AM 46.6 °F - 23.0 °F 39% 30.16 in 10.0 mi South 17.3 mph 25.3 mph N/A   Clear
12:15 PM 47.7 °F - 23.0 °F 38% 30.14 in 10.0 mi South 18.4 mph 25.3 mph N/A   Clear
12:35 PM 50.2 °F - 23.2 °F 35% 30.11 in 10.0 mi South 20.7 mph 26.5 mph N/A   Clear
12:55 PM 52.3 °F - 23.9 °F 33% 30.09 in 10.0 mi South 17.3 mph 24.2 mph N/A   Clear
1:15 PM 54.1 °F - 24.1 °F 31% 30.06 in 10.0 mi South 25.3 mph - N/A   Clear
1:35 PM 55.4 °F - 24.4 °F 30% 30.04 in 10.0 mi South 23.0 mph 26.5 mph N/A   Clear
1:55 PM 57.6 °F - 23.7 °F 27% 30.02 in 10.0 mi South 24.2 mph 29.9 mph N/A   Clear
2:15 PM 59.5 °F - 23.0 °F 25% 30.00 in 10.0 mi South 26.5 mph 32.2 mph N/A   Clear
2:35 PM 60.6 °F - 22.6 °F 23% 29.98 in 10.0 mi SSW 27.6 mph 34.5 mph N/A   Clear
2:55 PM 61.5 °F - 21.4 °F 21% 29.98 in 10.0 mi SSW 24.2 mph 32.2 mph N/A   Clear
3:15 PM 62.1 °F - 20.8 °F 21% 29.97 in 10.0 mi SSW 26.5 mph 34.5 mph N/A   Clear
3:35 PM 62.2 °F - 20.7 °F 20% 29.96 in 10.0 mi South 24.2 mph 31.1 mph N/A   Clear
3:55 PM 62.1 °F - 21.0 °F 21% 29.95 in 10.0 mi South 26.5 mph 32.2 mph N/A   Clear
4:15 PM 61.9 °F - 21.7 °F 21% 29.94 in 10.0 mi South 25.3 mph 32.2 mph N/A   Clear
4:35 PM 60.8 °F - 22.5 °F 23% 29.94 in 10.0 mi South 23.0 mph - N/A   Clear
4:55 PM 59.9 °F - 23.4 °F 25% 29.93 in 10.0 mi South 19.6 mph - N/A   Clear
5:15 PM 59.5 °F - 23.0 °F 25% 29.93 in 10.0 mi South 18.4 mph 27.6 mph N/A   Clear
5:35 PM 57.7 °F - 23.0 °F 26% 29.92 in 10.0 mi South 15.0 mph - N/A   Clear
5:55 PM - - - N/A% 29.91 in 10.0 mi South 16.1 mph - N/A   Unknown
6:15 PM 56.3 °F - 22.8 °F 27% 29.90 in 10.0 mi South 17.3 mph 23.0 mph N/A   Clear
6:35 PM 55.6 °F - 22.8 °F 28% 29.90 in 10.0 mi South 15.0 mph - N/A   Clear
6:55 PM 53.6 °F - 23.0 °F 30% 29.90 in 10.0 mi South 15.0 mph - N/A   Clear
7:15 PM 52.3 °F - 23.0 °F 32% 29.90 in 10.0 mi South 16.1 mph - N/A   Clear
7:35 PM 51.4 °F - 23.0 °F 33% 29.90 in 10.0 mi South 16.1 mph - N/A   Clear
7:55 PM 50.5 °F - 22.6 °F 34% 29.89 in 10.0 mi South 17.3 mph - N/A   Clear
8:15 PM 50.0 °F - 22.1 °F 33% 29.89 in 10.0 mi South 17.3 mph - N/A   Clear
8:35 PM 49.5 °F - 21.7 °F 34% 29.88 in 10.0 mi South 17.3 mph - N/A   Clear
8:55 PM 48.7 °F - 21.6 °F 34% 29.89 in 10.0 mi South 15.0 mph - N/A   Clear
9:15 PM 48.4 °F - 21.6 °F 35% 29.88 in 10.0 mi South 13.8 mph - N/A   Clear
9:35 PM 47.5 °F - 21.6 °F 36% 29.88 in 10.0 mi South 12.7 mph - N/A   Clear
9:55 PM 46.4 °F 40.1 °F 21.9 °F 38% 29.87 in 10.0 mi South 15.0 mph - N/A   Clear
10:15 PM 45.9 °F 39.7 °F 22.1 °F 39% 29.87 in 10.0 mi South 13.8 mph - N/A   Clear
10:35 PM 45.1 °F 38.8 °F 22.1 °F 40% 29.88 in 10.0 mi South 13.8 mph - N/A   Clear
10:55 PM 45.0 °F 38.9 °F 21.7 °F 40% 29.88 in 10.0 mi South 12.7 mph - N/A   Clear
11:15 PM 44.1 °F 37.7 °F 21.7 °F 41% 29.87 in 10.0 mi South 12.7 mph - N/A   Clear
11:35 PM 44.2 °F 37.3 °F 21.2 °F 40% 29.86 in 10.0 mi South 15.0 mph - N/A   Clear
11:55 PM 45.7 °F 38.3 °F 19.8 °F 36% 29.84 in 10.0 mi South 18.4 mph - N/A   Clear